Flag Weather past 2 weeks in Neubrandenburg, Mecklenburg-Western Pomerania, Germany

Now
34 °F

Fog.


Feels Like: 31 °F
Forecast: 28 / 36 °F
Wind: 3 mph from Southeast

Location: Greifswald

Current Time: Nov 27, 2014 at 7:02:42 AM

Latest Report: Nov 27, 2014 at 6:00 AM


Visibility: 1 mi

Pressure: 30.14 "Hg

Humidity: 95%

Dew point: 33 °F

Location of NeubrandenburgLocation

Historic Weather in Neubrandenburg — Graph

°F

Neubrandenburg temperature yesterday

Maximum temperature yesterday: 42 °F (at 3:00 PM)
Minimum temperature yesterday: 36 °F (at 11:00 PM)
Average temperature yesterday: 40 °F

Past Weeks' High & Low Weather Summary

 TemperatureHumidityPressure
High53 °F (Nov 12, 1:00 PM)100% (Nov 12, 7:00 AM)30.36 "Hg (Nov 12, 7:00 AM)
Low33 °F (Nov 22, 9:00 AM)79% (Nov 22, 3:00 PM)29.68 "Hg (Nov 16, 3:00 PM)
Average44 °F91%30.09 "Hg
* Reported Nov 12 6:00 AM — Nov 27 6:00 AM, Neubrandenburg, Weather by CustomWeather, © 2014

Note: Actual official high and low records may vary slightly from our data, if they occured in-between our weather recording intervals... More about our weather records

Advertising

Neubrandenburg weather history for previous 24 hours

 ConditionsComfort  
Time TempWeatherWind HumidityBarometerVisibility
6:00 AM
Nov 27
34 °FFog.3 mph95%30.14 "Hg1 mi
5:00 AM34 °FFog.3 mph97%30.14 "Hg2 mi
3:00 AM34 °FFog.2 mph96%30.16 "Hg2 mi
2:00 AM38 °FFog.5 mph93%30.17 "Hg3 mi
1:00 AM36 °FFog.3 mph95%30.18 "Hg4 mi
12:00 AM34 °FFog.3 mph97%30.20 "Hg3 mi
11:00 PM
Nov 26
36 °FClear.3 mph92%30.21 "Hg5 mi
9:00 PM39 °FOvercast.5 mph84%30.22 "Hg9 mi
8:00 PM39 °FOvercast.5 mph83%30.23 "Hg7 mi
7:00 PM40 °FOvercast.2 mph89%30.23 "Hg8 mi
6:00 PM40 °FOvercast.2 mph89%30.24 "Hg6 mi
5:00 PM39 °FOvercast.2 mph88%30.24 "Hg11 mi
3:00 PM42 °FOvercast.2 mph80%30.26 "Hg14 mi
2:00 PM42 °FOvercast.2 mph81%30.27 "Hg12 mi
1:00 PM42 °FOvercast.3 mph80%30.29 "Hg11 mi
12:00 PM42 °FOvercast.2 mph80%30.30 "Hg12 mi
11:00 AM41 °FOvercast.2 mph87%30.31 "Hg9 mi
9:00 AM40 °FFog.2 mph97%30.32 "Hg3 mi
8:00 AM39 °FFog.1 mph99%30.31 "Hg3 mi
7:00 AM39 °FFog.1 mph100%30.31 "Hg3 mi
Weather by CustomWeather, © 2014

See weather overviewHow to use our weather pages